Volver al catálogo

NOAA 7 DEB

ActivoPO
NORAD 12560·DEBRIS·🇺🇸 United States

Lanzado Jun 23, 1981 desde Vandenberg Space Force Base

Loading…

Próximos Pases (próximas 24 horas)

TLE

ActualizadoSource: Space-Track

Época: Sep 14, 2026, 15:39 UTC

1 12560U 81059C   26257.65236476  .00002581  00000-0  48257-3 0  9993
2 12560  98.9581  35.6182 0002748  74.6994 298.1409 14.65878780370604

Sigue NOAA 7 DEB en tiempo real con AllMySat

Download on the App Store